Location: Buckeye Ditch
(40.9104°N, 122.9517°W)
Time: 11:48:10
(UTC+00:00)

Explorer 7 - Pass Details

Date: 23 May 2025
Orbit: 445 x 571 km, 50.3° (Epoch: 22 June)

Event Time Altitude Azimuth Distance (km) Brightness Sun altitude
Rises 15:46:37 0° 298° (WNW) 2,641 9.8 31.6°
Reaches altitude 10° 15:48:53 10° 290° (WNW) 1,773 9.0 32.1°
Maximum altitude 15:52:39 39° 222° (SW) 821 7.7 32.8°
Drops below altitude 10° 15:56:33 10° 153° (SSE) 1,829 9.9 33.5°
Sets 15:58:56 0° 145° (SE) 2,736 10.8 34.0°
